{"data":{"norad_id":64686,"epoch":"2026-09-20T09:15:44.484192Z","epoch_age_seconds":141024,"freshness":"FRESH","line1":"1 64686U 25139Y   26263.38593153  .00023416  00000+0  70208-3 0  9991","line2":"2 64686  53.1569 298.3883 0001146  86.1813 273.9321 15.34396729 70150","mean_motion":15.34396729,"eccentricity":0.0001146,"inclination_deg":53.1569,"raan_deg":298.3883,"arg_perigee_deg":86.1813,"mean_anomaly_deg":273.9321,"bstar":0.00070208,"rev_number":7015,"period_min":93.847958144337,"perigee_km":461.92900092003,"apogee_km":463.49692373139,"semimajor_km":6840.8499623257,"source":"CELESTRAK","updated_at":"2026-09-21T09:00:35.401444Z"}}